Theta_e
302 301 303 302 302 301 301 301 302 303 303 304 305 307 308 306 304 301 301 302 303 306 309 307 305 305 306 305 305 304 303 305 306 305 304 302 303 302 299 297 296 296 294 292 292 291 291 290 289 289 289 290 290 290 291 292 293 293 294 294 294 294 294 293 293 293 293 294 294 295 296 296 296 297 300 300 302 304 303 303 305 305 307 309 310 311
303 302 301 300 302 301 301 302 301 303 303 304 306 309 310 304 301 300 301 303 302 306 312 309 305 307 307 305 304 303 304 306 307 306 304 302 301 299 297 297 296 296 293 291 292 291 291 291 289 288 289 289 290 289 290 291 292 293 294 294 294 294 294 293 293 292 291 292 292 292 292 293 293 295 297 297 298 300 300 300 301 301 303 305 307 308
304 302 300 301 302 301 303 304 301 302 305 307 308 310 308 302 302 304 303 303 301 305 312 308 305 309 308 304 304 304 305 306 306 306 304 302 302 299 297 298 298 298 297 294 292 291 291 291 290 289 289 289 290 289 290 290 291 292 293 294 294 293 293 293 293 291 291 291 291 291 291 291 291 292 293 293 294 295 296 296 297 298 300 302 303 303
305 302 300 302 302 301 305 306 302 302 305 307 309 308 305 302 303 305 304 303 301 304 308 305 307 312 310 307 306 305 305 305 304 304 304 301 300 299 298 298 297 297 298 296 294 291 291 291 290 289 289 289 290 289 289 290 290 291 292 293 293 292 292 292 292 291 291 291 290 290 290 290 290 290 290 291 291 292 292 293 293 294 296 297 298 298
303 300 300 305 307 303 305 307 302 302 303 306 308 305 303 303 302 303 303 302 303 305 303 303 311 317 312 310 309 306 306 306 304 303 303 302 301 300 299 299 299 298 297 297 296 292 290 291 290 290 289 289 289 289 289 289 290 290 292 293 293 292 291 291 292 292 291 291 290 291 291 290 290 290 290 290 289 289 290 290 291 291 292 293 294 294
303 300 301 307 309 307 306 305 300 300 304 307 308 304 302 303 303 302 303 305 310 312 304 302 312 320 316 311 309 308 308 308 306 305 307 305 303 301 299 299 301 301 297 295 294 292 291 290 290 290 290 289 289 289 289 289 289 290 291 292 293 292 291 290 291 291 292 291 291 292 291 291 290 289 289 289 288 288 289 289 289 290 291 291 292 292
301 301 304 306 307 308 306 303 299 298 304 306 305 304 303 303 302 300 303 308 312 311 304 303 309 314 315 313 309 308 308 309 308 309 309 307 305 303 300 299 301 302 298 295 293 291 291 291 290 290 290 289 289 288 289 289 289 290 290 291 292 292 291 290 290 290 291 291 291 291 290 289 289 288 288 288 288 288 288 289 289 289 289 290 290 290
300 303 306 306 306 307 304 302 300 298 302 305 304 303 303 300 299 300 304 308 307 307 307 307 306 305 311 315 310 306 307 309 309 308 309 308 307 305 303 300 300 302 301 298 295 291 290 291 290 291 290 290 289 288 288 289 288 289 289 291 291 292 291 291 290 290 290 290 289 289 289 288 288 288 288 288 288 288 288 288 288 288 288 288 289 289
299 302 303 303 305 306 302 300 299 297 301 305 302 300 299 299 299 301 306 308 305 308 313 311 305 305 313 315 309 306 308 309 307 306 308 310 309 307 306 303 301 300 297 294 293 291 290 291 291 291 291 290 290 289 288 288 288 288 288 289 290 291 291 291 290 289 289 289 289 288 288 288 288 287 287 287 287 287 288 288 288 287 287 287 288 288
300 300 298 300 302 301 300 300 299 299 301 303 301 300 301 302 302 304 306 307 307 312 313 309 304 306 313 315 308 306 307 306 305 305 308 310 310 308 306 304 301 299 296 291 291 292 291 291 291 291 291 291 291 290 288 288 288 288 288 288 289 290 291 291 290 290 289 289 288 288 288 288 287 287 287 287 287 287 287 287 287 287 287 287 287 287
300 301 299 300 300 298 299 301 300 300 301 302 302 304 305 304 305 306 304 303 310 316 311 307 303 302 310 315 308 305 304 303 303 305 308 311 312 310 307 304 299 298 297 292 289 291 292 291 291 291 291 291 292 291 289 288 288 288 287 288 288 289 290 290 290 290 289 289 288 288 288 288 287 287 287 287 287 287 287 287 287 287 287 287 287 287
302 303 302 302 301 298 301 303 302 301 300 301 304 305 308 310 309 310 310 308 314 315 310 307 303 300 307 313 307 303 302 302 302 303 305 310 312 311 309 305 300 296 297 295 290 290 291 291 291 291 292 291 292 292 290 289 288 288 287 287 288 288 289 289 290 290 289 289 289 288 288 288 288 287 287 287 287 287 287 287 286 286 286 286 287 287
307 303 300 303 301 298 302 305 306 307 304 302 304 306 313 317 313 314 316 314 314 312 307 305 302 302 307 309 305 304 303 303 302 300 303 308 310 311 311 308 302 297 297 297 293 290 290 291 292 292 292 292 292 292 292 290 289 288 288 287 287 287 288 288 289 289 289 289 289 289 288 288 288 287 287 287 287 286 286 286 286 286 286 286 286 286
314 309 303 304 302 300 303 303 304 308 305 303 303 306 313 315 313 316 315 311 313 313 306 301 301 307 309 306 305 304 303 303 302 300 302 305 307 309 310 307 304 300 298 297 293 290 290 292 292 293 292 292 292 292 292 291 290 289 288 287 287 287 287 287 288 288 289 289 289 289 289 288 288 288 287 287 286 286 286 286 286 286 286 287 286 286
314 316 308 304 301 301 302 300 299 301 302 302 302 304 310 309 310 314 311 310 313 311 306 303 304 308 308 306 304 301 300 302 304 303 303 303 304 306 306 304 304 303 301 298 293 290 291 293 293 293 293 293 293 293 292 292 291 290 289 288 287 287 287 287 287 288 288 288 288 289 289 288 288 288 287 287 286 286 286 286 286 287 286 287 286 286
309 314 308 303 300 299 300 298 297 299 302 303 302 305 307 305 307 309 307 307 306 304 308 310 308 307 306 304 303 301 299 301 304 305 303 303 304 305 305 304 305 305 303 302 297 292 291 294 294 294 294 294 293 293 293 292 292 291 290 289 288 287 287 287 287 287 287 288 288 288 288 288 288 288 288 287 287 286 286 286 286 286 286 286 286 286
308 313 308 302 300 299 298 298 297 299 303 306 305 304 300 299 304 307 305 304 302 305 311 309 307 307 306 303 302 302 303 303 304 306 305 305 305 305 304 306 307 306 305 303 298 294 293 294 295 294 295 294 294 294 293 293 293 292 291 290 289 288 287 287 287 287 287 287 287 287 287 287 287 287 287 287 287 286 286 286 286 286 286 286 286 286
302 309 308 302 302 300 296 297 299 297 298 305 307 300 296 300 304 304 305 306 307 311 311 307 307 307 307 309 307 304 304 303 304 306 307 307 307 305 305 306 306 306 306 303 297 294 294 295 295 295 296 295 295 295 294 294 293 293 292 291 290 289 289 288 287 287 287 287 287 287 287 287 287 287 287 287 287 286 286 286 286 286 286 286 286 286
299 308 310 301 300 302 299 300 304 302 298 299 300 298 299 306 307 305 306 308 309 310 308 307 307 306 307 311 309 304 302 303 305 306 306 305 304 305 305 306 307 308 308 308 302 296 295 297 297 296 296 296 296 296 295 295 294 293 293 292 291 291 290 289 288 287 287 287 287 287 287 287 287 287 287 287 286 286 286 286 286 286 286 286 286 286
299 306 311 303 299 302 303 304 306 306 304 302 302 301 303 305 304 303 305 306 308 309 308 306 307 309 311 310 306 302 301 303 304 302 302 303 303 303 302 302 307 309 307 309 307 298 296 298 298 297 298 297 297 297 296 295 294 294 293 293 292 292 291 290 289 288 288 288 287 287 286 286 286 286 286 286 286 286 286 286 286 286 286 286 286 286
299 303 308 307 304 304 305 303 303 303 303 305 307 304 304 304 303 303 303 303 305 307 306 305 307 309 309 307 305 302 302 304 304 300 300 303 302 301 300 300 304 307 306 308 305 297 296 298 297 297 298 297 297 298 297 296 295 294 294 293 293 292 292 291 290 289 289 289 288 287 287 287 286 286 286 286 286 286 286 286 286 286 286 286 285 285
300 302 303 305 307 307 304 300 299 300 298 301 303 302 303 304 304 306 307 303 302 304 304 303 305 306 304 304 302 300 301 303 303 300 300 302 300 300 300 300 302 303 305 306 299 295 296 297 297 297 297 297 297 297 297 297 296 295 294 294 293 293 292 292 292 291 290 290 289 289 288 288 287 287 286 286 286 286 286 286 286 286 286 286 286 285
299 300 301 304 305 303 301 297 296 297 297 297 298 299 302 304 303 306 308 305 302 301 301 301 302 305 305 305 303 300 300 301 302 300 300 300 299 299 299 300 301 303 303 300 294 294 297 296 296 297 296 297 297 296 297 297 296 296 295 294 294 293 293 293 293 292 291 290 290 290 289 289 288 288 287 286 286 286 286 286 286 286 286 286 286 285
299 301 301 304 306 303 300 296 295 295 296 297 298 298 300 301 301 304 306 305 302 302 303 302 304 309 307 305 303 303 302 301 301 301 300 299 299 299 299 299 300 302 302 298 293 294 297 296 296 297 296 297 297 296 297 296 296 296 296 295 295 294 294 293 293 292 292 291 291 290 290 289 289 288 288 288 288 287 287 287 286 286 286 286 286 285
299 303 303 305 310 311 308 306 303 301 300 300 300 300 299 299 300 301 303 302 301 303 304 304 308 312 309 306 305 304 302 300 300 299 298 299 299 298 298 298 299 301 303 303 298 294 295 296 296 296 296 297 297 297 297 296 296 296 296 296 295 295 295 294 293 293 292 292 291 291 290 290 290 289 289 289 288 289 288 288 287 287 286 286 286 286
299 302 302 304 310 313 314 314 310 306 303 301 300 300 299 299 299 299 302 303 303 302 300 303 310 310 306 305 304 301 301 300 299 299 298 298 298 298 298 298 299 300 302 305 303 296 293 294 295 296 296 297 297 297 297 297 296 296 296 296 295 295 295 295 295 294 293 292 292 292 291 291 290 290 289 289 289 289 289 289 288 288 287 287 287 287
299 298 299 303 307 307 308 308 304 301 300 299 299 299 298 299 298 298 301 303 302 301 300 301 305 305 303 302 301 300 300 300 299 298 298 298 298 298 298 297 298 300 301 303 303 298 295 294 294 296 297 296 297 297 297 297 297 296 296 296 295 295 295 295 295 295 294 294 293 293 292 292 291 291 290 290 290 290 289 289 289 289 288 288 288 288
299 298 298 300 301 301 301 300 299 298 298 297 298 298 297 298 299 298 300 300 300 302 304 302 299 300 301 300 300 300 299 299 298 298 298 297 297 297 297 297 298 300 302 304 303 302 301 296 293 295 297 297 297 297 297 297 297 296 297 296 296 295 295 295 295 294 295 294 294 294 293 293 292 292 291 291 291 290 290 290 289 289 289 288 288 288
299 299 298 297 297 298 297 296 296 296 296 296 296 296 296 297 298 299 298 298 298 301 305 302 299 299 300 299 299 299 298 298 298 297 297 297 297 297 297 298 300 302 304 305 304 304 302 296 292 295 297 297 297 297 297 297 297 297 297 296 296 296 295 295 294 294 294 294 294 294 294 293 293 292 292 291 291 291 290 290 290 290 289 289 289 288
298 300 298 296 297 297 296 296 296 295 295 296 296 296 296 296 296 297 297 297 297 298 300 299 298 298 298 298 298 298 298 297 297 297 297 297 298 298 298 299 301 303 303 303 303 302 296 292 293 295 296 297 297 297 297 297 297 297 297 296 296 296 296 295 294 294 294 294 294 293 293 293 293 293 292 292 292 291 291 291 290 290 290 289 289 289
295 300 299 297 298 298 297 297 297 296 297 296 295 295 295 295 296 296 296 296 296 297 297 297 297 297 297 297 298 297 298 298 298 298 298 298 299 298 299 300 301 302 302 301 302 300 293 290 293 295 295 297 297 297 297 297 297 297 297 296 296 296 296 295 294 294 294 294 294 293 293 293 293 293 293 292 292 292 291 291 290 290 290 290 289 289
295 299 299 298 300 303 300 298 296 295 295 295 297 299 297 295 296 296 295 295 297 297 297 297 298 298 298 299 299 299 299 299 299 300 299 299 299 299 300 300 300 301 302 300 301 301 294 290 292 295 295 297 297 297 297 297 297 297 296 296 296 296 296 295 295 294 294 294 294 293 293 293 293 292 292 292 292 292 292 291 290 290 290 290 290 290
295 299 299 297 301 306 303 297 294 296 301 305 306 308 304 298 296 297 297 296 296 297 299 301 302 301 300 301 301 300 300 300 300 300 300 299 299 299 299 299 299 300 300 300 301 300 295 292 293 295 296 297 297 297 297 297 297 297 296 296 296 296 295 295 295 294 294 294 293 293 293 293 292 292 292 292 292 292 291 291 291 291 290 290 290 290
294 297 298 295 299 305 302 297 296 303 316 316 307 305 307 304 302 303 302 300 298 298 300 301 301 301 300 300 301 300 300 300 300 299 299 298 298 298 298 298 299 299 299 299 297 294 292 293 295 297 297 297 297 297 297 297 297 296 296 296 296 295 295 295 294 294 294 294 294 293 293 293 292 292 292 292 292 291 291 291 291 291 290 290 290 290
295 296 297 295 297 300 299 300 307 316 320 312 302 301 305 305 302 302 301 300 298 297 299 299 299 300 299 299 299 299 299 298 298 298 298 297 297 297 298 298 298 298 300 301 296 292 293 295 296 297 297 298 297 297 297 297 297 296 296 295 295 295 295 295 294 294 294 294 294 294 293 293 293 292 292 292 292 291 291 291 291 291 290 290 290 290
296 297 297 296 296 299 300 303 311 315 310 302 298 298 299 300 300 300 302 303 301 299 298 299 299 299 299 298 298 298 298 297 297 297 298 298 298 298 298 299 299 298 298 298 296 294 296 297 297 297 298 298 297 297 297 297 297 296 296 295 295 295 295 295 294 294 294 294 294 294 294 293 293 292 293 292 292 291 291 291 291 291 290 290 290 290
295 297 297 296 297 299 300 302 303 305 307 306 301 298 298 300 301 301 303 306 305 302 300 301 301 300 299 299 298 297 297 297 298 299 302 304 302 298 296 296 296 295 295 295 296 296 298 298 297 297 298 297 297 297 297 297 297 296 296 296 295 295 295 294 294 295 295 294 295 295 294 293 293 292 292 292 292 292 292 291 291 291 290 290 289 289
293 296 297 298 299 297 299 301 302 308 317 313 303 298 298 300 302 302 302 303 305 305 302 301 304 304 303 303 301 298 297 299 300 301 305 307 302 296 295 294 294 295 295 296 297 297 298 298 298 297 297 297 297 297 297 297 297 296 296 296 295 295 295 294 294 295 295 295 295 295 294 294 293 292 292 292 292 292 292 291 291 291 290 290 289 289
292 294 295 297 299 298 300 304 305 309 315 310 302 298 298 300 301 301 302 306 311 311 303 300 304 307 306 305 303 299 299 301 301 300 304 305 300 296 295 295 295 297 297 297 298 298 298 298 298 297 297 296 296 297 297 297 297 296 295 295 295 295 294 294 295 295 295 295 295 295 294 293 293 292 292 292 292 292 292 291 291 291 290 290 289 289
292 294 294 295 298 297 298 302 302 303 306 305 303 301 299 299 300 301 306 312 313 310 303 300 305 309 307 305 302 299 301 302 301 300 302 301 298 295 295 295 295 297 298 298 298 298 298 297 297 297 297 297 297 298 297 297 296 295 295 295 295 294 294 295 295 295 295 295 294 294 294 293 293 292 292 292 292 292 292 291 291 290 290 290 289 289
292 293 293 294 297 296 296 299 300 300 301 301 302 302 299 298 300 303 311 315 311 309 305 301 305 309 308 305 303 300 301 301 300 300 299 297 296 296 295 295 296 296 297 298 298 298 297 297 296 297 297 298 298 297 297 297 296 295 295 295 294 294 295 296 296 295 295 295 294 294 294 293 293 292 292 292 292 291 291 291 291 290 290 290 289 289
296 294 293 293 296 296 295 296 298 300 301 299 299 299 297 300 305 308 311 312 311 311 307 303 305 308 306 304 302 300 300 299 299 299 298 297 296 295 294 294 295 295 296 297 297 298 297 296 296 296 297 298 298 297 297 296 295 295 295 295 294 295 296 296 295 295 295 295 294 294 294 293 293 292 292 292 291 291 291 291 291 290 290 289 289 289
301 300 298 295 296 297 296 296 303 310 306 298 297 298 296 301 311 313 309 307 309 312 309 304 304 304 303 301 300 299 299 298 298 298 297 296 295 294 293 294 294 294 296 296 297 298 297 296 295 296 297 298 298 297 297 296 295 295 295 295 296 297 296 296 296 295 295 294 294 294 294 293 293 293 292 292 291 291 291 291 290 290 289 289 289 288
301 302 303 300 298 301 303 305 311 316 307 297 300 306 302 299 305 310 307 303 305 307 305 302 301 301 300 299 299 298 298 298 297 298 297 297 295 293 293 293 293 294 295 296 297 298 297 295 295 296 297 298 297 297 297 295 295 295 295 295 297 297 296 296 296 295 295 294 294 294 294 293 293 293 292 292 291 291 290 290 290 289 289 289 288 288
302 302 306 306 302 301 305 308 308 309 304 297 299 306 306 301 300 302 302 301 301 301 300 300 299 299 299 299 299 298 298 298 298 298 297 298 296 294 293 294 294 294 295 295 296 297 297 296 296 296 296 297 297 297 297 296 295 294 295 296 297 296 296 296 295 295 294 294 294 294 294 293 293 293 292 292 291 290 290 290 289 289 289 288 288 287
302 300 302 306 303 301 302 304 302 303 303 299 297 299 302 301 300 299 299 299 299 299 299 299 299 299 299 299 299 298 298 298 298 298 298 298 296 294 293 294 294 294 295 295 296 297 297 296 296 295 295 296 297 297 297 296 295 295 295 297 297 296 296 295 295 294 294 294 294 294 293 293 293 293 292 292 291 290 290 289 289 288 288 287 287 287
302 300 300 303 303 302 303 303 302 301 301 302 300 299 299 298 298 298 298 298 298 298 298 298 298 298 298 298 298 298 298 298 298 298 297 297 296 294 293 293 294 294 295 295 296 297 297 295 295 294 294 295 297 297 297 296 296 296 296 297 296 296 296 295 294 294 294 294 294 293 293 293 292 293 292 292 291 290 290 289 288 287 287 287 286 286
302 301 301 302 301 302 303 303 303 302 302 302 301 300 300 299 299 299 298 297 297 297 297 297 297 297 297 297 298 298 297 297 297 297 297 297 296 295 294 294 294 294 295 296 296 296 295 295 295 295 294 295 297 297 297 296 296 296 296 296 296 296 295 294 294 294 294 294 294 293 293 292 292 292 292 291 291 290 289 288 288 287 287 286 286 285
302 301 302 302 301 301 302 301 301 301 302 301 301 300 300 300 300 300 299 298 298 298 298 297 296 296 296 296 296 296 298 298 296 296 297 297 296 295 295 295 295 295 295 296 296 296 295 295 295 295 295 295 296 297 296 296 296 296 296 296 295 295 294 294 294 294 294 294 293 293 292 292 292 292 291 291 290 290 289 288 287 287 286 286 286 285
302 302 303 303 302 302 302 302 302 302 302 303 302 301 301 301 301 301 300 300 299 299 299 298 297 295 295 294 294 295 297 298 296 295 296 296 295 295 295 295 295 296 296 296 296 296 295 295 295 295 295 296 296 296 296 296 296 296 296 296 295 294 294 294 294 293 293 293 293 292 292 292 291 291 291 290 290 289 288 287 286 286 286 285 285 284
301 301 302 302 302 303 303 302 302 302 302 302 302 302 302 302 303 302 301 300 300 299 298 298 298 298 297 296 295 295 296 296 296 296 295 295 295 295 296 295 295 295 296 296 296 295 295 295 295 294 294 295 296 296 296 296 296 296 296 296 295 294 294 294 293 293 293 293 293 292 292 291 291 291 290 289 288 288 287 286 285 285 284 284 284 283
Wind_Speed
4 7 6 2 3 6 5 2 2 5 4 4 2 1 3 4 5 6 4 3 9 7 3 4 7 9 9 8 8 3 3 4 2 0 2 2 3 3 2 4 4 4 4 6 9 9 13 15 16 17 17 17 17 18 17 17 18 16 17 20 19 17 17 17 16 15 13 13 16 19 22 24 25 25 25 25 24 22 21 21 20 19 18 17 16 15
5 9 4 4 5 6 4 2 2 1 1 2 2 1 3 2 6 8 3 3 8 4 4 6 9 10 8 7 7 1 4 1 2 2 1 1 2 2 3 5 5 4 4 6 8 9 11 12 14 15 16 16 17 18 17 16 16 15 17 19 18 17 17 16 15 15 14 13 14 15 18 21 23 24 25 26 25 23 22 21 21 20 20 19 18 16
7 7 5 6 4 3 3 4 5 4 4 2 2 1 3 2 5 7 2 6 8 2 3 8 8 8 8 6 5 3 2 2 3 2 3 2 1 3 4 5 4 4 5 5 6 7 8 9 11 12 13 14 15 17 17 16 16 16 17 17 17 17 15 13 13 14 15 15 15 15 16 19 21 22 24 25 24 23 23 22 22 22 21 20 20 19
5 3 6 4 1 3 4 6 8 5 3 2 2 2 3 3 3 4 2 9 9 1 2 8 5 5 6 6 5 4 2 3 3 3 2 1 2 4 5 5 4 4 5 5 6 6 5 6 9 11 12 12 14 16 18 17 17 17 17 16 15 15 14 11 9 10 13 15 17 18 19 20 21 21 21 23 23 23 23 23 22 22 22 21 21 20
3 4 5 4 5 4 3 6 8 6 5 3 0 2 2 3 1 4 5 9 7 1 2 6 3 3 5 6 6 4 4 4 4 5 5 4 3 4 5 5 4 4 5 5 6 6 5 5 7 8 10 11 12 14 16 16 17 16 15 15 14 14 13 11 8 7 8 11 15 17 18 19 20 21 21 22 22 22 23 24 23 22 22 21 21 21
2 4 3 5 6 6 4 4 4 3 5 5 2 2 2 3 3 4 7 7 4 3 5 7 5 4 5 5 6 5 5 6 4 5 6 5 5 4 5 6 5 4 5 5 6 7 6 5 6 7 8 9 10 11 13 13 13 13 13 13 13 13 13 13 11 9 7 10 12 14 17 18 20 22 21 20 20 21 23 23 22 21 21 21 21 21
2 4 4 5 4 6 5 2 0 2 5 5 2 2 2 2 3 4 5 3 3 1 4 5 4 3 5 5 6 5 6 7 6 6 6 5 5 4 5 6 5 5 5 6 7 7 6 6 7 6 6 8 8 9 10 11 12 12 12 12 12 13 13 13 13 12 11 13 15 16 19 20 21 22 20 19 20 21 21 21 21 21 21 20 21 20
2 6 7 6 5 6 6 4 2 1 4 4 1 3 2 6 6 2 2 2 1 2 4 5 3 2 3 5 6 5 6 8 7 7 7 5 5 5 5 6 6 5 5 4 6 6 5 6 7 6 6 6 7 7 8 9 11 11 11 11 12 13 13 13 13 13 13 15 17 19 20 21 21 21 20 19 20 20 20 21 21 21 21 21 21 21
2 5 6 5 6 6 4 4 3 1 1 5 2 2 5 5 2 2 4 1 1 2 4 6 3 2 3 6 5 4 4 6 7 7 8 6 5 6 6 6 6 6 6 6 6 6 6 6 6 6 6 6 7 7 7 8 9 10 10 11 11 12 13 12 12 12 13 14 15 17 19 21 20 19 19 18 18 19 19 20 21 20 21 21 21 21
1 1 1 2 4 3 5 6 3 3 3 7 1 3 2 2 3 3 4 1 2 5 2 6 4 3 3 5 5 4 3 5 6 5 5 5 5 5 6 6 6 5 5 7 9 8 8 7 7 6 6 6 7 7 6 6 7 9 10 10 12 12 11 10 10 11 12 12 13 14 16 17 17 16 15 16 17 17 18 19 19 19 20 20 20 20
2 2 2 2 2 2 5 6 2 4 5 6 4 4 4 4 3 3 2 2 4 3 3 5 2 2 2 5 3 2 2 4 4 5 5 5 5 5 5 6 5 5 4 6 9 9 9 8 7 7 7 7 7 7 7 6 6 7 8 9 10 11 9 9 8 9 10 10 11 12 13 14 13 13 13 14 15 15 16 18 18 18 18 18 19 19
3 2 0 2 1 1 3 4 2 1 3 5 4 3 3 3 3 4 4 4 5 3 4 4 2 1 1 4 3 4 6 5 4 4 6 6 5 5 5 6 5 5 5 5 6 9 10 10 9 9 9 8 7 7 7 6 5 5 5 6 7 8 8 7 7 7 8 8 9 10 10 11 11 10 11 13 14 13 14 16 17 17 17 17 17 17
2 0 2 3 2 1 3 4 4 4 5 6 5 4 4 3 4 4 4 3 2 4 3 1 4 1 3 5 5 6 7 5 4 5 6 6 5 5 5 6 5 5 5 5 5 8 10 11 12 12 11 10 9 8 7 6 5 4 3 3 4 5 5 5 5 5 6 6 7 7 8 8 8 8 9 11 12 12 13 14 14 15 15 16 16 16
3 3 4 4 2 2 4 3 3 4 5 6 4 3 4 3 5 4 4 3 2 5 4 1 2 1 3 4 5 6 7 6 5 5 5 5 5 6 6 5 5 5 5 5 5 7 10 13 14 14 13 12 11 9 8 7 5 4 4 3 2 1 2 3 3 4 4 5 5 5 5 6 5 6 7 8 9 10 11 11 11 12 12 13 14 14
3 4 4 3 2 3 4 1 1 1 3 4 1 3 4 3 3 2 2 1 3 6 6 4 1 1 4 4 4 5 6 5 5 5 5 4 4 5 5 5 5 6 6 5 5 8 13 15 15 15 14 13 13 11 10 9 7 6 6 5 4 3 2 1 1 2 2 3 4 4 4 4 4 4 5 7 8 8 9 9 9 10 10 10 11 12
1 4 5 2 2 2 2 2 2 3 1 2 1 4 2 2 3 1 2 4 2 3 5 4 1 4 4 3 4 6 6 5 5 5 6 6 5 5 5 5 5 5 6 5 4 8 14 17 16 16 16 15 14 13 12 12 10 8 7 7 7 6 5 5 4 3 3 3 3 3 3 3 4 4 4 5 7 7 7 7 7 8 8 8 9 10
2 4 4 3 2 1 1 2 1 1 1 2 2 2 1 2 5 2 2 2 3 2 4 3 3 6 3 1 4 7 7 7 7 6 6 6 7 6 5 6 5 6 6 6 5 9 14 16 16 16 17 16 16 15 15 14 13 11 9 8 8 8 8 8 7 6 5 5 4 4 4 4 4 4 4 4 6 7 7 7 6 7 7 7 7 8
1 5 4 2 1 2 2 1 3 3 1 2 2 1 1 2 4 3 1 3 5 2 4 3 4 6 3 1 5 8 8 7 7 6 6 7 6 6 6 6 6 6 6 6 7 10 13 14 15 17 17 17 17 17 17 17 15 14 12 11 10 10 10 10 9 9 8 7 7 6 6 5 5 5 5 5 5 6 7 7 7 6 6 6 6 6
0 4 5 1 1 4 2 3 3 4 3 3 2 2 2 3 2 2 1 1 3 3 5 5 5 5 2 3 4 6 4 5 6 5 6 7 6 6 6 7 7 6 6 6 6 8 11 11 12 15 16 18 18 18 19 18 17 16 15 14 13 12 11 10 11 11 10 10 9 9 8 8 7 7 7 7 7 7 7 7 7 7 6 6 6 6
1 1 4 4 2 4 4 3 2 4 4 3 2 2 2 3 1 1 0 1 1 1 3 4 4 4 4 5 3 5 6 6 5 5 6 6 6 6 7 7 7 6 6 5 5 7 10 10 10 11 13 15 16 18 19 19 19 19 18 17 16 15 13 12 13 13 13 13 12 11 11 10 10 9 9 9 9 9 9 8 9 8 8 7 7 7
2 1 3 5 4 2 2 2 0 1 2 3 3 3 3 2 1 1 1 1 2 1 1 3 5 6 5 4 4 7 6 6 5 4 5 6 6 7 8 7 6 6 6 6 5 8 11 11 11 11 11 12 13 15 17 18 20 20 20 20 19 18 17 16 16 16 15 14 14 14 14 13 12 12 12 12 12 12 12 11 11 10 9 10 9 9
1 1 2 5 5 2 1 2 2 3 3 2 1 2 2 1 2 2 2 3 1 2 3 1 4 8 6 3 5 6 5 6 5 4 6 6 7 8 8 7 7 6 6 6 6 9 11 11 12 13 13 13 13 14 15 15 17 19 21 22 21 21 20 19 19 18 18 16 16 16 16 15 15 14 14 15 15 15 15 15 14 12 12 13 12 11
1 2 0 4 4 4 4 2 1 2 3 3 1 2 3 2 3 3 2 3 1 1 1 2 2 7 6 3 4 4 4 5 5 5 6 7 7 8 8 8 7 6 6 7 8 10 11 11 11 12 13 13 13 14 14 14 15 16 18 20 21 23 23 23 21 21 20 19 19 19 18 17 17 17 17 17 18 18 18 17 17 15 16 15 14 14
1 2 1 4 4 4 5 3 2 2 2 3 0 1 2 0 2 4 4 2 1 2 1 2 2 7 6 3 3 4 4 5 6 6 6 6 7 8 8 8 7 6 7 7 9 11 12 11 11 11 12 13 12 13 13 14 15 15 16 17 18 21 23 24 23 22 22 22 22 21 21 21 20 20 20 20 20 20 20 20 19 18 18 18 17 17
1 0 2 3 5 6 6 5 5 5 2 1 2 1 2 2 4 2 0 2 1 4 5 3 4 7 5 3 3 5 6 8 8 7 6 6 7 8 8 8 7 6 6 7 8 9 11 12 12 12 13 13 13 13 13 13 14 14 15 16 16 18 19 21 22 23 24 24 24 24 24 24 24 24 24 24 23 23 22 22 21 21 21 20 20 20
1 1 1 2 1 3 4 4 3 3 3 2 1 2 2 2 3 0 1 2 2 4 5 5 6 6 7 7 7 7 8 10 12 11 9 7 7 7 7 7 7 6 6 7 7 7 9 12 14 14 14 14 14 13 13 13 13 13 14 15 15 16 17 17 18 20 22 23 25 26 27 27 27 27 27 27 27 26 25 24 24 24 23 23 22 22
2 1 3 5 5 5 6 7 3 2 4 6 4 3 4 3 3 3 3 3 4 3 3 8 9 9 14 14 10 9 10 11 12 11 10 9 8 8 8 8 8 6 6 6 6 6 8 11 14 16 15 15 15 14 14 14 14 13 13 14 14 15 16 16 16 17 20 21 23 25 27 28 28 29 29 29 29 29 28 28 28 27 26 26 25 25
3 2 4 6 9 9 9 10 7 4 6 9 8 7 6 6 5 6 6 6 4 4 4 9 7 8 16 15 10 11 12 11 11 11 11 9 9 9 8 9 9 8 7 6 5 6 6 8 13 16 16 16 16 17 16 15 15 14 14 15 14 13 14 14 15 16 18 19 21 24 26 26 27 28 28 29 29 29 30 30 30 30 29 28 28 28
4 3 4 4 7 10 10 11 10 7 8 9 10 10 9 7 9 10 11 8 6 6 8 5 3 8 15 16 14 14 13 11 11 11 10 9 9 8 8 8 8 8 8 7 7 7 6 7 12 15 16 16 16 17 17 17 16 16 15 16 15 15 14 13 14 16 17 18 20 22 23 24 24 26 26 27 29 29 30 31 31 31 31 31 31 31
3 3 3 1 6 11 11 12 10 7 7 8 10 12 11 10 11 13 13 10 10 13 14 11 11 15 17 17 16 14 12 10 10 9 9 10 9 8 8 8 8 8 8 8 8 7 7 10 13 15 16 16 17 18 19 18 17 16 16 17 17 17 16 14 14 15 16 18 19 20 21 22 23 24 25 26 27 28 29 30 30 31 31 32 32 33
0 2 2 2 5 9 8 6 5 5 7 10 12 12 11 10 10 11 12 9 9 13 15 14 14 17 17 14 12 11 10 8 8 9 9 9 9 8 8 9 9 8 8 8 8 8 9 12 14 15 17 17 17 19 20 19 17 16 16 17 18 19 18 16 16 15 16 18 19 19 20 21 21 22 23 24 25 26 27 28 29 30 31 32 33 34
1 1 2 5 4 7 4 4 7 8 7 11 15 14 11 8 7 8 8 8 10 10 9 7 9 12 12 8 5 7 8 7 9 10 9 9 8 7 8 9 9 9 8 8 8 7 8 12 14 16 18 18 17 17 19 20 18 17 17 17 18 19 18 18 18 18 18 19 19 19 19 20 20 21 22 23 24 25 25 26 27 28 30 31 32 33
2 1 2 3 2 7 6 7 10 9 4 4 8 8 8 7 5 5 5 8 11 8 5 5 8 8 5 4 6 8 9 9 9 9 7 8 8 8 9 9 10 10 8 8 8 8 10 13 16 19 20 20 19 17 18 19 19 20 19 19 19 18 19 20 20 20 21 21 20 20 20 19 20 21 21 22 23 23 24 25 27 28 29 30 30 31
3 3 1 1 1 5 9 11 9 5 2 3 3 5 8 8 8 8 8 9 11 9 6 7 9 8 6 6 8 10 10 10 10 8 7 7 7 8 10 10 9 10 9 8 9 11 14 17 18 20 21 22 21 18 17 18 19 21 21 20 20 19 20 21 21 22 23 23 23 22 21 21 21 21 21 21 22 23 24 25 26 27 28 29 29 31
3 3 2 2 1 3 7 9 6 2 4 6 6 4 6 6 7 8 11 12 11 11 11 11 13 13 11 9 10 11 11 11 9 8 9 9 8 8 9 10 10 10 9 8 9 13 17 18 18 20 22 23 22 19 17 18 19 21 21 21 21 21 20 21 22 23 24 24 25 24 23 22 22 21 21 21 21 23 24 25 26 26 27 28 29 30
5 4 2 2 2 2 4 4 2 6 9 9 6 3 2 3 3 3 8 12 11 10 10 12 15 15 11 11 11 11 10 9 7 7 9 10 9 8 8 9 9 10 11 12 13 16 18 19 20 21 22 23 23 21 20 21 20 21 22 22 22 22 21 21 22 23 24 25 25 25 24 24 23 23 22 21 21 23 23 24 25 25 25 26 27 28
5 4 2 1 2 1 1 2 3 8 11 7 2 1 1 2 4 4 2 8 9 8 9 10 12 13 11 11 12 9 6 7 7 6 7 9 9 9 11 13 14 14 17 20 21 20 20 21 22 23 23 23 24 23 23 23 22 21 22 22 23 23 22 22 23 25 25 26 26 25 25 25 24 24 23 22 22 23 23 23 24 24 24 24 25 26
2 3 4 2 1 2 1 4 4 5 6 4 3 4 3 2 6 7 1 7 7 8 11 11 11 11 10 10 10 6 4 6 9 8 5 7 9 9 12 16 19 20 22 24 23 21 21 24 25 25 24 23 24 24 24 24 23 22 23 23 23 23 23 24 25 26 26 26 26 25 24 24 24 24 23 23 23 23 23 23 23 22 22 22 23 24
4 2 3 3 1 1 3 1 2 2 6 6 4 3 3 3 5 5 3 6 7 6 9 10 10 10 9 9 8 2 3 6 10 8 5 7 9 9 10 14 19 22 23 23 23 22 25 27 27 26 25 24 25 25 24 24 24 23 23 23 23 23 25 26 27 26 26 26 25 24 24 24 23 24 24 24 24 23 23 23 22 21 20 21 21 21
5 3 2 2 3 2 3 2 3 5 8 7 5 5 4 4 4 4 5 7 7 6 7 9 10 10 9 8 5 2 3 7 10 9 7 7 9 12 13 15 19 22 23 23 24 25 26 27 26 26 27 28 28 27 25 24 24 23 23 24 23 24 26 27 27 26 26 25 24 24 24 23 24 24 24 24 24 23 23 22 21 20 20 20 20 20
2 0 1 3 3 4 4 4 4 6 9 8 7 7 6 3 4 1 4 6 6 6 6 9 10 10 8 7 5 4 7 9 10 11 10 9 10 14 18 22 23 23 25 26 27 27 27 26 26 27 29 30 30 28 26 25 24 24 25 24 24 26 27 27 26 26 26 25 25 24 24 23 23 24 24 24 23 23 23 22 21 21 21 20 20 20
2 2 2 2 2 3 4 3 4 7 9 6 7 7 6 3 1 5 6 4 5 6 7 8 9 9 7 7 7 7 10 12 11 11 11 10 11 14 19 23 23 23 26 28 27 27 26 26 26 27 29 30 30 29 27 26 25 25 25 24 26 28 27 25 26 26 26 26 25 24 24 23 23 23 24 24 23 23 24 23 21 21 21 21 21 21
4 4 2 4 3 2 1 1 3 7 6 6 11 6 3 5 6 5 4 3 4 6 6 7 8 8 7 8 10 10 12 13 12 11 12 12 11 14 20 22 22 24 26 27 27 27 26 24 25 27 29 30 30 29 28 26 25 26 25 26 28 28 26 25 26 26 26 26 26 25 25 24 23 23 23 23 23 23 24 23 22 22 22 21 21 21
5 6 3 3 4 4 3 4 6 5 5 9 9 5 6 10 8 4 3 5 5 5 5 6 7 9 8 9 12 12 12 13 13 12 11 11 12 14 18 21 22 24 26 27 29 29 26 25 26 28 30 31 30 30 28 26 26 27 27 29 29 27 26 26 25 25 26 27 27 26 25 24 24 23 23 23 22 23 24 24 23 23 23 22 22 22
9 9 4 4 6 5 5 9 11 5 5 9 8 6 7 10 9 6 5 6 7 6 6 7 9 11 10 10 12 12 11 11 13 13 11 11 12 14 17 21 24 25 26 28 30 29 27 27 28 28 30 31 30 30 29 28 27 28 30 30 28 26 26 26 25 26 27 27 27 27 26 25 24 24 23 23 23 24 25 25 24 24 24 23 22 22
7 7 3 2 3 2 6 15 17 13 9 10 11 9 9 10 9 7 6 7 9 10 9 8 11 13 12 10 10 11 12 12 13 14 13 11 12 15 19 22 24 26 26 27 29 30 29 28 27 27 28 31 31 30 29 29 28 30 31 30 27 26 26 25 25 27 27 27 28 27 26 26 25 25 24 24 24 25 25 25 25 24 24 23 23 23
4 6 5 4 3 3 8 15 17 16 14 13 12 10 10 12 12 9 8 9 11 12 11 11 12 12 12 11 11 12 14 14 12 13 13 11 11 15 18 20 23 25 26 27 28 30 28 26 26 26 27 30 31 31 29 29 29 30 31 30 27 26 25 25 26 27 28 28 29 28 27 27 26 26 25 25 24 25 25 25 25 24 24 24 23 23
3 5 7 9 8 8 12 18 19 14 10 9 11 10 8 11 12 11 11 13 13 14 16 16 15 12 11 11 12 12 14 14 12 13 13 11 12 15 17 20 22 25 26 27 28 27 26 26 27 27 28 30 31 31 30 29 30 30 30 29 28 25 25 26 26 27 28 28 29 29 28 27 27 26 26 25 25 25 25 25 25 25 25 25 24 23
3 4 4 4 6 8 12 19 21 15 9 11 16 15 12 12 14 13 14 15 13 13 16 18 19 16 14 14 13 11 13 15 13 13 13 12 12 16 19 22 24 26 27 28 28 27 26 26 28 29 30 31 32 31 30 30 31 31 30 29 28 25 25 26 26 26 28 28 28 29 28 27 27 27 26 26 25 24 25 25 25 25 24 24 22 22
4 7 4 2 7 10 12 16 16 11 9 11 14 16 13 10 11 13 14 13 12 12 13 15 18 18 18 19 17 13 11 14 16 15 14 14 16 20 23 25 26 27 28 29 28 27 27 27 28 29 31 33 32 31 31 31 31 30 30 29 28 26 25 26 25 26 28 28 28 29 28 27 27 27 26 26 25 24 24 24 23 23 23 22 21 20
10 13 9 7 13 16 15 15 13 10 10 10 10 15 15 9 8 11 13 14 13 14 13 13 15 15 15 18 21 18 12 14 20 19 14 16 23 27 26 26 26 27 29 29 27 26 27 28 29 29 31 33 32 31 31 31 29 28 28 28 27 26 25 25 25 26 28 28 28 28 28 27 27 26 25 24 24 23 23 22 21 21 21 21 20 18
Wind_Direction
49 63 44 2 314 304 309 335 242 241 232 207 200 224 291 311 304 298 288 345 9 358 318 344 324 310 311 311 317 311 118 93 117 148 345 350 347 324 311 299 295 296 315 15 30 30 25 19 15 16 21 25 29 29 26 28 25 18 22 32 33 31 37 36 31 39 39 39 51 59 66 67 66 70 76 78 81 83 82 82 85 86 87 91 93 93
48 63 23 282 257 272 306 334 312 340 147 171 166 285 326 316 300 306 279 330 16 21 281 329 335 321 321 318 321 23 126 158 197 188 283 292 329 309 268 276 290 300 327 6 21 28 24 19 19 19 21 23 25 29 28 29 29 27 30 35 35 34 38 37 37 48 53 51 52 55 62 66 66 69 73 75 78 82 83 84 86 87 88 91 91 92
44 54 325 280 255 282 357 18 9 35 108 88 46 37 338 308 296 304 299 342 358 58 282 321 330 315 310 317 340 46 118 252 245 215 210 197 314 291 266 273 294 318 332 344 356 14 20 22 24 24 27 25 24 27 29 32 34 37 38 37 39 39 38 35 40 56 64 67 70 70 69 69 69 67 69 72 74 78 81 81 84 87 90 92 94 96
57 14 315 307 352 2 358 6 10 17 62 50 38 61 328 323 342 313 325 343 339 127 264 306 308 301 315 338 350 4 1 320 328 317 261 212 244 256 265 276 286 305 315 319 325 339 4 27 30 28 31 31 29 28 28 29 33 38 41 43 44 44 43 45 50 60 69 77 81 82 80 78 77 73 71 71 70 73 75 75 77 80 86 90 94 97
95 284 311 18 34 39 16 2 16 17 4 341 229 92 324 314 310 258 290 328 331 342 331 340 356 315 336 354 325 320 346 334 344 340 311 298 293 283 291 289 277 279 288 293 305 319 346 26 31 30 31 33 38 37 34 31 31 36 41 46 50 51 51 55 66 71 76 86 88 89 87 84 81 75 69 67 64 67 70 71 73 76 81 85 88 90
69 298 341 28 18 36 59 22 21 25 357 334 268 195 240 267 243 275 308 328 8 19 351 25 40 307 325 343 306 312 337 318 326 327 293 288 310 310 291 284 287 286 277 271 284 309 333 0 18 26 27 32 42 47 47 44 40 40 44 51 54 57 58 56 63 75 84 89 89 89 85 79 75 69 64 65 66 69 73 75 78 80 83 85 87 88
1 345 37 61 31 27 47 52 60 63 20 345 297 164 157 284 292 321 334 352 56 345 321 43 84 271 319 327 295 310 324 311 322 322 294 284 293 291 272 273 287 287 279 278 284 297 315 334 353 8 18 30 40 49 54 54 51 50 51 56 59 61 62 58 60 69 78 83 83 83 81 79 79 77 75 78 80 80 82 84 83 83 84 86 88 90
355 353 17 35 32 24 23 12 319 65 31 313 259 84 350 309 305 324 46 48 89 263 328 16 86 181 298 290 281 315 330 321 335 333 318 307 280 273 271 269 272 268 258 260 274 280 289 311 333 346 3 20 29 41 51 51 52 53 54 60 65 65 65 62 61 64 71 78 82 84 84 84 84 86 87 88 88 88 88 88 86 85 86 87 89 91
20 10 3 6 21 22 358 323 286 138 49 267 225 49 301 293 292 124 95 48 302 49 358 326 13 76 274 278 300 346 357 328 331 327 318 319 294 275 275 272 269 265 252 240 248 259 269 290 312 328 345 1 10 22 37 49 53 53 56 60 64 66 66 65 64 66 70 76 82 87 88 89 90 91 93 94 92 92 91 89 88 88 88 88 89 91
23 29 200 76 46 2 297 292 270 167 250 278 286 59 345 24 65 85 90 79 26 50 342 289 348 41 283 289 324 5 17 321 317 313 296 299 294 275 271 275 269 264 260 250 248 252 265 285 301 312 325 337 353 7 15 34 47 48 51 54 60 66 68 70 71 73 78 81 85 88 90 93 96 97 98 97 93 91 91 90 89 88 88 88 89 89
294 282 183 119 85 266 283 298 265 192 253 309 10 53 41 35 37 55 57 71 60 21 282 262 310 45 302 289 287 328 313 276 288 311 304 303 302 282 268 271 263 251 252 253 253 253 261 276 285 291 301 313 333 352 359 6 22 37 43 45 56 69 74 78 80 81 85 87 87 90 91 94 97 100 101 98 95 94 93 92 92 92 91 90 90 89
359 7 304 259 262 277 317 318 326 250 291 347 7 16 34 10 8 25 357 31 60 334 273 249 293 61 243 283 284 292 288 266 253 286 299 296 289 279 268 263 255 247 248 253 256 256 257 262 265 270 280 292 307 326 343 352 353 10 31 35 50 68 78 84 88 89 91 92 92 95 97 98 100 102 102 100 99 98 96 97 99 99 97 96 95 93
3 291 311 305 285 35 7 338 347 348 351 7 3 16 51 17 8 22 344 3 38 283 256 264 350 350 226 260 276 284 288 283 267 267 277 276 272 277 273 265 261 257 256 253 252 255 255 253 253 257 266 275 286 298 315 330 329 334 355 10 30 56 74 86 95 99 101 100 100 100 101 104 105 105 102 103 104 103 101 102 104 103 101 99 98 96
342 305 335 357 332 23 51 35 349 335 343 351 344 22 64 52 27 7 322 336 318 282 275 319 357 300 288 278 249 266 279 272 275 279 278 274 272 276 273 272 277 272 263 251 243 251 251 249 251 254 257 262 269 278 287 297 303 301 296 298 322 14 59 83 100 112 117 114 112 111 109 111 112 110 107 107 110 111 111 110 108 107 105 103 101 99
10 315 327 15 340 6 55 79 195 222 314 310 277 76 76 95 77 6 286 270 291 297 303 322 3 228 301 279 240 279 292 280 285 296 307 305 288 285 286 287 286 278 271 258 245 249 251 251 254 254 254 256 260 264 270 275 278 277 274 269 264 260 257 244 178 148 148 139 136 138 132 130 131 125 119 118 119 121 122 121 117 115 113 111 109 106
31 269 274 321 318 36 38 295 167 130 324 291 126 72 55 151 135 119 223 212 239 318 299 307 278 242 267 263 281 322 337 342 332 329 345 330 309 321 316 296 286 280 279 271 257 253 254 256 255 254 255 256 256 257 260 263 265 265 261 258 257 251 245 245 242 224 209 190 177 173 165 162 160 157 150 138 135 137 136 133 129 127 125 122 120 118
1 278 283 346 347 96 141 284 358 69 325 334 44 57 275 174 129 106 302 291 54 40 278 298 303 290 321 337 317 353 10 1 345 339 337 309 307 331 316 296 295 289 287 283 269 262 262 262 259 256 256 257 257 256 257 260 260 260 256 252 251 247 242 240 240 240 234 223 216 212 202 196 188 187 185 169 159 157 155 153 149 145 142 138 136 134
301 285 303 26 356 285 185 136 7 1 31 41 47 178 207 70 86 93 9 345 25 11 280 319 306 298 345 332 320 1 8 346 335 329 322 314 328 337 311 298 292 283 288 292 286 279 277 274 269 265 261 260 261 261 262 264 262 259 255 251 248 245 243 241 241 243 241 237 235 231 227 222 216 212 206 198 189 179 175 175 173 170 165 161 159 157
271 291 306 347 263 300 342 83 9 334 12 70 112 167 101 63 18 16 58 8 4 321 293 307 287 277 246 232 314 344 317 295 307 321 330 327 330 319 301 297 292 290 298 302 304 300 297 297 291 284 276 270 268 266 267 267 262 258 256 252 249 247 246 245 244 244 241 241 240 238 239 235 229 226 219 215 211 204 202 199 196 196 194 190 186 184
6 325 294 300 286 304 349 47 16 325 338 24 43 359 36 116 150 332 26 144 133 289 304 314 302 282 236 212 260 279 247 237 270 320 334 317 312 307 296 294 290 291 298 298 301 302 308 318 318 312 303 292 284 276 272 269 263 260 258 255 253 251 246 242 241 242 242 243 241 240 240 237 234 232 227 226 225 223 224 222 219 219 218 215 211 209
4 64 261 299 335 356 357 1 305 276 335 3 24 22 18 25 48 23 321 142 132 167 280 320 304 282 257 220 226 247 237 216 232 321 330 298 307 313 302 297 288 284 292 291 287 295 308 321 327 329 326 318 309 296 285 276 268 263 259 256 256 254 251 245 242 243 244 243 243 243 241 240 240 237 232 232 232 233 235 234 233 233 231 230 229 227
5 72 254 303 338 355 290 262 202 172 166 163 140 119 114 46 59 64 326 315 70 163 178 199 284 277 270 236 215 226 229 224 234 320 327 300 305 310 304 299 286 278 284 281 283 297 309 321 328 329 326 323 320 313 304 293 280 270 263 259 258 256 255 253 251 249 247 245 244 246 246 245 245 242 238 237 237 239 240 240 241 240 236 237 237 237
143 90 295 274 283 290 291 299 122 160 159 139 146 157 140 107 102 121 249 278 314 264 176 127 265 269 265 242 222 232 241 243 255 300 309 300 302 302 301 303 293 281 280 279 286 298 307 317 321 320 317 316 314 312 311 307 298 287 277 269 262 259 259 259 258 257 255 250 248 248 248 247 247 245 243 242 243 244 244 245 246 244 242 243 243 242
90 65 349 282 288 315 321 337 26 39 97 114 247 192 148 168 136 152 185 189 249 263 182 85 275 266 274 276 256 260 271 276 282 287 290 299 308 304 299 302 301 293 291 290 292 301 310 314 311 309 309 309 308 308 310 310 307 304 296 285 273 268 267 265 262 260 258 256 255 253 251 249 248 246 246 245 247 248 248 248 248 247 247 248 246 245
304 13 20 346 338 342 350 353 343 345 16 174 252 227 177 137 104 99 97 84 291 237 164 136 253 256 268 300 305 304 310 311 304 299 295 294 299 302 301 301 298 293 296 295 295 305 314 313 309 304 301 303 304 306 311 312 311 308 306 300 291 285 281 275 269 265 261 259 259 257 255 254 252 249 248 248 249 251 251 251 250 249 249 249 248 248
224 215 132 80 24 313 316 314 307 321 317 295 295 181 190 124 103 119 2 88 244 237 159 172 237 266 284 293 305 314 319 317 312 313 315 299 285 290 295 298 298 294 292 289 289 301 308 308 305 301 297 297 299 303 310 314 313 311 309 306 302 298 294 288 279 273 267 263 261 260 259 258 255 253 252 252 252 253 254 254 252 251 250 250 250 250
102 245 212 182 196 221 251 264 271 7 302 282 278 237 228 242 210 174 139 161 202 197 200 226 242 283 291 288 300 312 311 309 307 309 312 305 301 301 297 296 296 288 280 280 282 291 299 302 301 300 298 293 290 294 301 307 311 312 310 309 309 305 300 296 289 281 275 270 265 263 263 261 259 258 258 258 258 258 257 257 256 255 254 253 252 252
95 287 240 205 229 243 254 269 286 316 282 266 269 258 232 220 196 175 193 210 164 130 249 247 227 254 274 280 293 300 299 300 300 301 302 301 300 299 296 297 295 288 286 286 281 278 285 294 298 301 301 293 288 289 293 298 301 304 306 308 310 306 301 298 292 285 279 274 270 268 268 267 265 264 264 263 262 261 261 260 260 259 259 257 256 255
121 267 248 199 253 265 263 268 269 265 262 257 258 259 243 211 197 206 220 210 168 195 245 256 218 246 267 280 286 286 289 294 294 294 294 294 289 287 291 293 288 286 291 293 283 272 268 278 289 297 299 294 288 287 289 293 295 296 298 301 305 305 303 299 290 285 281 275 273 274 274 274 272 270 269 267 265 264 263 262 262 262 261 261 260 260
138 261 275 232 277 275 265 265 261 251 260 261 249 247 244 225 210 219 231 219 210 235 253 266 275 272 270 272 276 281 286 287 288 290 291 290 289 290 294 290 283 280 283 283 281 276 270 274 282 290 293 290 289 289 290 292 293 293 293 294 298 300 301 299 289 283 279 275 276 280 280 278 276 274 272 270 269 268 267 266 265 264 263 263 263 263
247 284 332 32 311 286 276 285 279 248 257 269 266 255 246 238 224 226 235 226 220 244 254 259 269 273 269 266 270 278 283 286 287 289 287 285 286 292 294 287 280 276 276 276 277 277 274 275 279 284 285 286 292 297 296 294 291 291 291 293 293 295 298 296 290 283 279 278 280 282 281 279 278 276 274 273 272 271 270 269 267 266 266 265 264 264
165 283 357 42 346 287 282 336 307 281 265 271 277 267 242 226 218 218 221 207 201 219 238 248 256 259 264 277 284 271 274 281 280 279 282 284 282 283 283 282 277 273 272 274 274 272 272 272 273 276 277 280 290 299 301 297 291 288 290 294 295 294 293 290 288 287 284 283 284 281 279 278 277 276 275 274 273 273 272 271 269 267 267 266 266 266
142 129 1 44 326 277 291 320 308 306 315 278 266 243 206 193 206 225 231 215 204 193 183 213 237 245 262 306 304 287 285 285 277 271 273 278 280 277 274 273 271 269 268 268 267 264 263 266 271 275 277 278 280 291 301 299 290 287 290 294 296 293 288 285 285 287 287 287 285 282 280 278 276 274 275 274 274 274 273 270 268 267 266 267 268 267
136 120 136 157 231 278 301 314 319 343 2 263 235 179 165 170 190 218 246 232 207 200 213 241 260 274 286 284 280 281 279 274 275 275 267 264 270 275 276 272 266 266 268 265 260 260 262 267 275 280 281 279 277 283 297 298 291 289 289 290 291 290 286 284 283 284 286 287 285 284 282 279 275 274 275 276 275 274 272 269 268 268 267 268 268 266
144 127 153 177 203 273 310 333 350 356 233 254 271 230 191 173 182 219 261 261 229 217 233 255 266 268 269 268 266 267 267 267 276 282 274 265 254 253 265 269 266 264 268 266 258 258 264 270 276 283 287 288 281 280 290 296 295 292 289 286 287 286 285 284 283 282 283 284 283 283 283 280 277 277 277 277 276 274 272 270 269 269 269 268 267 267
153 147 161 177 209 278 342 12 333 283 282 292 303 267 172 113 146 207 277 273 247 219 218 239 256 260 264 268 265 264 271 282 287 271 261 261 254 243 247 256 258 255 256 258 255 258 267 276 280 285 291 292 285 279 285 294 297 293 290 287 284 283 283 283 282 282 281 281 282 283 283 282 280 279 278 278 275 273 272 272 271 272 272 271 270 270
146 143 156 217 220 222 313 239 256 308 316 317 312 222 142 131 157 146 285 271 244 205 196 221 249 257 258 261 264 270 293 312 305 275 249 250 249 241 239 246 252 255 259 263 263 265 273 282 286 288 291 291 285 280 284 291 294 292 290 287 283 282 282 280 280 281 281 281 282 283 283 282 281 280 280 278 275 273 273 273 274 275 274 273 273 272
136 161 171 189 233 112 61 298 311 336 314 274 247 271 280 203 156 133 72 288 260 211 197 207 231 245 247 253 262 284 337 320 295 284 263 253 253 250 250 256 260 262 265 268 269 270 278 288 292 292 292 289 284 283 286 289 291 289 286 285 284 282 280 278 278 280 281 281 283 284 284 283 281 280 279 278 276 275 276 276 277 278 277 275 275 275
47 48 119 131 294 93 109 261 265 263 261 248 237 259 249 173 144 106 16 295 267 225 196 196 216 231 237 243 248 277 1 297 285 284 260 246 252 254 256 263 268 271 273 272 269 271 282 291 293 292 290 286 283 287 290 288 287 284 281 282 283 280 277 276 279 282 283 284 286 286 285 284 281 279 278 278 277 277 278 279 280 280 279 276 275 276
56 27 82 150 231 205 156 202 234 245 255 243 215 224 224 176 116 49 337 280 248 222 188 186 210 227 227 229 228 199 226 258 276 285 270 256 265 265 262 264 269 273 275 275 274 278 285 288 288 287 287 286 286 290 291 287 283 280 278 280 279 275 274 278 283 287 288 287 287 286 284 282 280 279 278 278 278 279 279 280 280 279 278 275 274 275
100 53 165 166 206 204 197 236 261 260 256 238 201 192 190 134 79 54 262 245 222 217 199 189 211 229 221 209 209 216 234 246 263 280 285 282 280 276 272 271 271 271 273 275 279 283 285 284 283 283 285 288 290 291 289 285 280 277 278 278 273 272 276 282 286 288 288 287 286 284 283 281 279 278 278 278 278 278 277 276 276 275 274 274 274 272
183 153 149 162 187 187 192 234 275 282 269 229 173 166 163 140 179 224 229 218 184 201 211 205 215 228 223 220 230 244 258 264 265 274 280 277 271 272 274 275 274 272 273 275 278 282 281 280 281 281 283 288 290 290 288 283 276 275 277 274 271 276 283 285 285 285 285 284 284 283 282 280 278 278 277 276 275 274 273 272 272 273 273 272 271 269
175 155 187 196 188 160 132 266 282 283 265 161 131 123 173 203 211 210 223 241 202 198 216 221 222 227 232 246 256 257 263 272 273 269 269 268 265 265 269 271 270 270 273 275 277 280 280 278 277 278 283 288 289 288 287 280 273 273 272 270 274 282 286 284 283 283 281 280 280 280 280 279 277 276 275 273 271 269 269 270 269 269 269 268 268 267
181 175 198 207 188 156 153 215 231 233 207 174 158 163 209 217 217 190 200 256 249 222 224 235 240 240 235 247 264 266 265 271 273 270 267 268 267 263 264 266 266 266 269 272 275 280 281 277 276 279 282 286 287 287 285 278 272 271 268 271 279 284 283 283 283 280 278 277 277 277 278 277 276 275 272 270 268 266 265 266 266 265 265 264 263 263
201 184 182 213 209 182 190 235 244 228 178 193 209 226 225 228 231 215 217 259 269 254 246 253 262 261 251 248 261 268 268 268 270 272 269 267 267 265 263 265 265 265 268 270 273 278 279 276 276 278 280 283 285 285 283 278 271 267 268 275 282 283 281 283 282 277 276 276 275 276 276 276 274 273 271 268 266 263 263 262 262 261 261 260 258 257
209 174 160 234 225 226 253 255 257 260 247 232 235 242 246 251 251 235 228 245 256 260 259 255 258 263 262 257 260 265 266 264 267 272 270 265 266 267 265 265 266 266 266 267 270 276 278 277 276 274 275 281 284 283 282 279 271 267 272 279 282 281 281 281 278 275 274 274 274 275 274 273 272 271 269 267 265 263 262 261 260 260 259 258 255 253
213 168 201 235 201 204 252 255 253 251 251 252 251 244 242 250 253 248 244 245 250 258 259 254 254 259 259 256 254 258 264 263 262 268 270 266 264 265 263 263 264 266 265 264 269 274 275 273 272 271 270 276 282 284 282 279 274 272 275 279 280 279 279 277 273 273 272 272 273 273 271 270 270 270 269 267 265 263 260 258 257 257 256 254 251 249
206 175 211 226 213 217 247 260 262 258 256 262 262 254 245 250 251 247 247 251 253 258 261 260 258 256 256 255 250 250 261 265 261 262 267 267 264 266 266 264 264 267 269 269 271 272 269 266 267 269 268 271 278 283 282 279 278 278 278 278 278 278 275 272 270 270 271 271 272 271 269 268 268 269 269 267 265 262 258 255 254 254 255 255 253 250
135 182 201 211 228 242 257 264 268 273 274 264 260 257 251 251 255 253 250 250 252 254 259 262 258 253 252 254 251 251 261 266 262 260 263 267 269 269 270 270 270 270 271 273 274 272 267 264 265 266 267 270 276 280 279 278 280 281 279 279 279 276 271 269 268 268 268 269 269 268 267 267 266 266 266 265 263 260 256 254 254 254 255 256 255 254
176 224 211 195 255 253 248 250 257 267 268 258 261 266 259 240 239 250 255 254 251 247 249 257 260 258 252 250 249 247 254 263 266 264 261 265 269 269 269 271 273 274 274 274 275 273 269 266 265 265 266 271 275 276 276 277 279 281 280 280 278 274 269 267 266 266 266 266 266 265 265 265 264 264 262 261 260 257 253 253 253 253 252 252 251 252
215 229 216 219 248 253 251 249 251 260 264 259 264 275 275 253 219 231 247 253 254 253 251 254 261 264 260 256 254 249 244 255 264 265 263 266 269 269 270 270 269 271 273 274 274 272 270 269 267 264 264 269 273 274 275 276 278 280 280 280 277 273 268 265 262 262 263 264 264 264 265 264 263 262 260 257 256 253 249 247 247 247 248 246 245 245